| time (UTC) | temp C | wind direction | speed KPH | gust KPH | rain 1hr cm | rain 24hr cm | rain mn cm | humidity % | barometer mb |
| 20260901065921 | 22 | 191 | 0.0 | 0.0 | 0.00 | 0.00 | 0.00 | 93 | 1016.5 |
| 20260901065421 | 22 | 191 | 0.0 | 0.0 | 0.00 | 0.00 | 0.00 | 93 | 1016.3 |
| 20260901064921 | 21 | 191 | 0.0 | 0.0 | 0.00 | 0.00 | 0.00 | 93 | 1016.4 |
| 20260901064421 | 21 | 191 | 0.0 | 0.0 | 0.00 | 0.00 | 0.00 | 92 | 1016.5 |
| 20260901063921 | 21 | 191 | 0.0 | 0.0 | 0.00 | 0.00 | 0.00 | 92 | 1016.4 |
| 20260901063421 | 22 | 191 | 0.0 | 0.0 | 0.00 | 0.00 | 0.00 | 92 | 1016.7 |
| 20260901062921 | 21 | 191 | 0.0 | 0.0 | 0.00 | 0.00 | 0.00 | 92 | 1016.7 |
| 20260901062421 | 22 | 191 | 0.0 | 0.0 | 0.00 | 0.00 | 0.00 | 92 | 1016.5 |
| 20260901061921 | 22 | 191 | 0.0 | 0.0 | 0.00 | 0.00 | 0.00 | 92 | 1016.6 |
| 20260901061421 | 22 | 191 | 0.0 | 0.0 | 0.00 | 0.00 | 0.00 | 92 | 1016.6 |
| 20260901060921 | 22 | 191 | 0.0 | 0.0 | 0.00 | 0.00 | 0.00 | 92 | 1016.8 |
| 20260901060421 | 22 | 191 | 0.0 | 0.0 | 0.00 | 0.00 | 0.00 | 92 | 1016.9 |
| 20260901055921 | 22 | 191 | 0.0 | 0.0 | 0.00 | 0.00 | 0.00 | 92 | 1016.8 |
| 20260901055421 | 22 | 192 | 0.0 | 0.0 | 0.00 | 0.00 | 0.00 | 92 | 1016.8 |
| 20260901054921 | 22 | 191 | 0.0 | 0.0 | 0.00 | 0.00 | 0.00 | 92 | 1016.8 |
| 20260901054421 | 22 | 191 | 0.0 | 0.0 | 0.00 | 0.00 | 0.00 | 92 | 1017.1 |
| 20260901053921 | 22 | 191 | 0.0 | 0.0 | 0.00 | 0.00 | 0.00 | 92 | 1017.2 |
| 20260901053421 | 22 | 191 | 0.0 | 0.0 | 0.00 | 0.00 | 0.00 | 92 | 1017.2 |
| 20260901052921 | 22 | 191 | 0.0 | 0.0 | 0.00 | 0.00 | 0.00 | 92 | 1017.3 |
| 20260901052421 | 22 | 191 | 0.0 | 0.0 | 0.00 | 0.00 | 0.00 | 92 | 1017.5 |
| 20260901051921 | 22 | 191 | 0.0 | 0.0 | 0.00 | 0.00 | 0.00 | 92 | 1017.3 |
| 20260901051421 | 22 | 191 | 0.0 | 0.0 | 0.00 | 0.00 | 0.00 | 92 | 1017.4 |
| 20260901050921 | 22 | 191 | 0.0 | 0.0 | 0.00 | 0.00 | 0.00 | 92 | 1017.7 |
| 20260901050421 | 22 | 191 | 0.0 | 0.0 | 0.00 | 0.00 | 0.00 | 92 | 1017.5 |
| 20260901045921 | 22 | 191 | 0.0 | 0.0 | 0.00 | 0.00 | 0.00 | 92 | 1017.6 |
| 20260901045421 | 22 | 191 | 0.0 | 0.0 | 0.00 | 0.00 | 0.00 | 91 | 1017.6 |
| 20260901044921 | 22 | 191 | 0.0 | 0.0 | 0.00 | 0.00 | 0.00 | 91 | 1017.6 |
| 20260901044421 | 22 | 191 | 0.0 | 0.0 | 0.00 | 0.00 | 0.00 | 91 | 1017.8 |
| 20260901043921 | 22 | 191 | 0.0 | 0.0 | 0.00 | 0.00 | 0.00 | 91 | 1017.6 |
| 20260901043421 | 22 | 191 | 0.0 | 0.0 | 0.00 | 0.00 | 0.00 | 91 | 1017.8 |
| 20260901042921 | 22 | 191 | 0.0 | 0.0 | 0.00 | 0.00 | 0.00 | 91 | 1017.8 |
| 20260901042421 | 22 | 191 | 0.0 | 0.0 | 0.00 | 0.00 | 0.00 | 91 | 1017.5 |
| 20260901041921 | 22 | 191 | 0.0 | 0.0 | 0.00 | 0.00 | 0.00 | 91 | 1017.4 |
| 20260901041421 | 22 | 191 | 0.0 | 0.0 | 0.00 | 0.00 | 0.00 | 91 | 1017.5 |
| 20260901040921 | 22 | 191 | 0.0 | 0.0 | 0.00 | 0.00 | 0.00 | 91 | 1017.3 |
| 20260901040421 | 22 | 191 | 0.0 | 0.0 | 0.00 | 0.00 | 0.00 | 91 | 1017.3 |
| 20260901035921 | 22 | 191 | 0.0 | 0.0 | 0.00 | 0.00 | 0.00 | 91 | 1017.5 |
| 20260901035421 | 22 | 191 | 0.0 | 0.0 | 0.00 | 0.00 | 0.00 | 91 | 1017.5 |
| 20260901034921 | 22 | 191 | 0.0 | 0.0 | 0.00 | 0.00 | 0.00 | 91 | 1017.5 |
| 20260901034421 | 22 | 191 | 0.0 | 0.0 | 0.00 | 0.00 | 0.00 | 91 | 1017.6 |
| 20260901033921 | 22 | 191 | 0.0 | 0.0 | 0.00 | 0.00 | 0.00 | 91 | 1017.4 |
| 20260901033421 | 22 | 191 | 0.0 | 0.0 | 0.00 | 0.00 | 0.00 | 91 | 1017.4 |
| 20260901032921 | 22 | 191 | 0.0 | 1.6 | 0.00 | 0.00 | 0.00 | 91 | 1017.4 |
| 20260901032421 | 22 | 191 | 0.0 | 0.0 | 0.00 | 0.00 | 0.00 | 91 | 1017.3 |
| 20260901031921 | 22 | 191 | 0.0 | 0.0 | 0.00 | 0.00 | 0.00 | 91 | 1017.2 |
| 20260901031421 | 22 | 191 | 0.0 | 0.0 | 0.00 | 0.00 | 0.00 | 91 | 1017.3 |
| 20260901030921 | 22 | 192 | 0.0 | 0.0 | 0.00 | 0.00 | 0.00 | 91 | 1017.2 |
| 20260901030421 | 22 | 191 | 0.0 | 0.0 | 0.00 | 0.00 | 0.00 | 91 | 1017.1 |
| 20260901025921 | 22 | 191 | 0.0 | 0.0 | 0.00 | 0.00 | 0.00 | 90 | 1017.1 |
| 20260901025421 | 22 | 191 | 0.0 | 0.0 | 0.00 | 0.00 | 0.00 | 90 | 1017.2 |
| 20260901024921 | 22 | 191 | 0.0 | 0.0 | 0.00 | 0.00 | 0.00 | 90 | 1017.1 |
| 20260901024421 | 22 | 191 | 0.0 | 0.0 | 0.00 | 0.00 | 0.00 | 90 | 1017.1 |
| 20260901023921 | 22 | 191 | 0.0 | 0.0 | 0.00 | 0.00 | 0.00 | 90 | 1017.3 |
| 20260901023421 | 22 | 191 | 0.0 | 0.0 | 0.00 | 0.00 | 0.00 | 90 | 1017.3 |
| 20260901022921 | 22 | 191 | 0.0 | 0.0 | 0.00 | 0.00 | 0.00 | 90 | 1017.4 |
| 20260901022421 | 22 | 191 | 0.0 | 0.0 | 0.00 | 0.00 | 0.00 | 90 | 1017.3 |
| 20260901021921 | 22 | 191 | 0.0 | 0.0 | 0.00 | 0.00 | 0.00 | 90 | 1017.3 |
| 20260901021421 | 22 | 191 | 0.0 | 0.0 | 0.00 | 0.00 | 0.00 | 90 | 1017.5 |
| 20260901020921 | 22 | 191 | 0.0 | 0.0 | 0.00 | 0.00 | 0.00 | 90 | 1017.5 |
| 20260901020421 | 22 | 149 | 0.0 | 0.0 | 0.00 | 0.00 | 0.00 | 90 | 1017.7 |
| 20260901015921 | 22 | 192 | 0.0 | 0.0 | 0.00 | 0.00 | 0.00 | 90 | 1017.5 |
| 20260901015421 | 22 | 202 | 1.6 | 1.6 | 0.00 | 0.00 | 0.00 | 90 | 1017.4 |
| 20260901014921 | 22 | 202 | 1.6 | 1.6 | 0.00 | 0.00 | 0.00 | 90 | 1017.5 |
| 20260901014421 | 22 | 197 | 1.6 | 1.6 | 0.00 | 0.00 | 0.00 | 90 | 1017.7 |
| 20260901013921 | 22 | 197 | 0.0 | 1.6 | 0.00 | 0.00 | 0.00 | 89 | 1017.5 |
| 20260901013421 | 22 | 195 | 1.6 | 1.6 | 0.00 | 0.00 | 0.00 | 90 | 1017.5 |
| 20260901012921 | 22 | 193 | 0.0 | 1.6 | 0.00 | 0.00 | 0.00 | 90 | 1017.6 |
| 20260901012421 | 22 | 193 | 0.0 | 0.0 | 0.00 | 0.00 | 0.00 | 90 | 1017.7 |
| 20260901011921 | 22 | 193 | 0.0 | 1.6 | 0.00 | 0.00 | 0.00 | 90 | 1017.6 |
| 20260901011421 | 22 | 191 | 0.0 | 1.6 | 0.00 | 0.00 | 0.00 | 90 | 1017.5 |
| 20260901010921 | 22 | 191 | 0.0 | 0.0 | 0.00 | 0.00 | 0.00 | 90 | 1017.6 |
| 20260901010421 | 22 | 191 | 0.0 | 0.0 | 0.00 | 0.00 | 0.00 | 90 | 1017.6 |
| 20260901005921 | 22 | 190 | 0.0 | 0.0 | 0.00 | 0.00 | 0.00 | 90 | 1017.7 |
| 20260901005421 | 22 | 190 | 0.0 | 0.0 | 0.00 | 0.00 | 0.00 | 90 | 1017.5 |
| 20260901004921 | 22 | 190 | 0.0 | 0.0 | 0.00 | 0.00 | 0.00 | 90 | 1017.5 |
| 20260901004421 | 22 | 190 | 0.0 | 0.0 | 0.00 | 0.00 | 0.00 | 90 | 1017.4 |
| 20260901003921 | 22 | 184 | 0.0 | 1.6 | 0.00 | 0.00 | 0.00 | 90 | 1017.6 |
| 20260901003421 | 22 | 184 | 0.0 | 0.0 | 0.00 | 0.00 | 0.00 | 90 | 1017.2 |
| 20260901002921 | 22 | 184 | 1.6 | 1.6 | 0.00 | 0.00 | 0.00 | 90 | 1017.4 |
| 20260901002421 | 22 | 206 | 1.6 | 1.6 | 0.00 | 0.00 | 0.00 | 90 | 1017.5 |
| 20260901001921 | 22 | 173 | 1.6 | 1.6 | 0.00 | 0.00 | 0.00 | 90 | 1017.3 |
| 20260901001421 | 22 | 173 | 0.0 | 0.0 | 0.00 | 0.00 | 0.00 | 90 | 1017.3 |
| 20260901000921 | 22 | 162 | 1.6 | 1.6 | 0.00 | 0.00 | 0.00 | 90 | 1017.2 |
| 20260901000421 | 23 | 159 | 0.0 | 0.0 | 0.00 | 0.00 | 0.00 | 90 | 1017.3 |
| 20260831235921 | 23 | 159 | 0.0 | 0.0 | 0.00 | 0.00 | 0.00 | 89 | 1017.2 |
| 20260831235421 | 23 | 161 | 0.0 | 0.0 | 0.00 | 0.00 | 0.00 | 89 | 1017.3 |
| 20260831234921 | 23 | 156 | 0.0 | 0.0 | 0.00 | 0.00 | 0.00 | 89 | 1017.5 |
| 20260831234421 | 23 | 156 | 0.0 | 1.6 | 0.00 | 0.00 | 0.00 | 89 | 1017.7 |
| 20260831233921 | 23 | 157 | 0.0 | 0.0 | 0.00 | 0.00 | 0.00 | 89 | 1017.7 |
| 20260831233421 | 23 | 157 | 0.0 | 0.0 | 0.00 | 0.00 | 0.00 | 88 | 1017.5 |
| 20260831232921 | 23 | 158 | 0.0 | 0.0 | 0.00 | 0.00 | 0.00 | 87 | 1017.5 |
| 20260831232421 | 23 | 158 | 0.0 | 0.0 | 0.00 | 0.00 | 0.00 | 87 | 1017.7 |
| 20260831231921 | 23 | 140 | 0.0 | 0.0 | 0.00 | 0.00 | 0.00 | 86 | 1017.8 |
| 20260831231421 | 23 | 140 | 0.0 | 0.0 | 0.00 | 0.00 | 0.00 | 85 | 1017.6 |
| 20260831230921 | 23 | 140 | 1.6 | 1.6 | 0.00 | 0.00 | 0.00 | 84 | 1017.8 |
| 20260831230421 | 24 | 141 | 0.0 | 0.0 | 0.00 | 0.00 | 0.00 | 84 | 1017.8 |
| 20260831225921 | 24 | 141 | 0.0 | 0.0 | 0.00 | 0.00 | 0.00 | 84 | 1017.7 |
| 20260831225421 | 23 | 141 | 0.0 | 0.0 | 0.00 | 0.00 | 0.00 | 84 | 1017.7 |
| 20260831224921 | 24 | 141 | 0.0 | 0.0 | 0.00 | 0.00 | 0.00 | 84 | 1017.6 |
| 20260831224421 | 24 | 142 | 0.0 | 0.0 | 0.00 | 0.00 | 0.00 | 83 | 1017.9 |
| 20260831223921 | 24 | 142 | 0.0 | 1.6 | 0.00 | 0.00 | 0.00 | 83 | 1017.9 |
| 20260831223421 | 24 | 129 | 0.0 | 1.6 | 0.00 | 0.00 | 0.00 | 83 | 1018.0 |
| 20260831222921 | 24 | 135 | 0.0 | 1.6 | 0.00 | 0.00 | 0.00 | 83 | 1017.9 |
| 20260831222421 | 24 | 129 | 3.2 | 3.2 | 0.00 | 0.00 | 0.00 | 83 | 1017.6 |
| 20260831221921 | 24 | 198 | 1.6 | 1.6 | 0.00 | 0.00 | 0.00 | 83 | 1018.1 |
| 20260831221421 | 24 | 209 | 1.6 | 3.2 | 0.00 | 0.00 | 0.00 | 83 | 1018.3 |
| 20260831220921 | 24 | 203 | 3.2 | 3.2 | 0.00 | 0.00 | 0.00 | 83 | 1018.5 |
| 20260831220421 | 24 | 191 | 1.6 | 3.2 | 0.00 | 0.00 | 0.00 | 83 | 1018.2 |
| 20260831215921 | 24 | 205 | 4.8 | 6.4 | 0.00 | 0.00 | 0.00 | 83 | 1018.1 |
| 20260831215421 | 24 | 143 | 1.6 | 4.8 | 0.00 | 0.00 | 0.00 | 83 | 1018.3 |
| 20260831214921 | 24 | 223 | 3.2 | 3.2 | 0.00 | 0.00 | 0.00 | 83 | 1018.8 |
| 20260831214421 | 25 | 197 | 1.6 | 1.6 | 0.00 | 0.00 | 0.00 | 83 | 1018.5 |
| 20260831213921 | 25 | 208 | 1.6 | 1.6 | 0.00 | 0.00 | 0.00 | 82 | 1018.4 |
| 20260831213421 | 25 | 237 | 3.2 | 3.2 | 0.00 | 0.00 | 0.00 | 80 | 1018.3 |
| 20260831212921 | 26 | 190 | 3.2 | 4.8 | 0.00 | 0.00 | 0.00 | 79 | 1017.9 |
| 20260831212421 | 27 | 183 | 1.6 | 3.2 | 0.00 | 0.00 | 0.00 | 80 | 1017.7 |
| 20260831211921 | 27 | 118 | 0.0 | 1.6 | 0.00 | 0.00 | 0.00 | 79 | 1017.9 |
| 20260831211421 | 27 | 95 | 3.2 | 3.2 | 0.00 | 0.00 | 0.00 | 79 | 1017.8 |
| 20260831210921 | 28 | 64 | 4.8 | 4.8 | 0.00 | 0.00 | 0.00 | 78 | 1017.6 |
| 20260831210421 | 28 | 225 | 3.2 | 4.8 | 0.00 | 0.00 | 0.00 | 78 | 1017.7 |
| 20260831205921 | 28 | 90 | 4.8 | 6.4 | 0.00 | 0.00 | 0.00 | 77 | 1017.6 |
| 20260831205421 | 28 | 4 | 3.2 | 4.8 | 0.00 | 0.00 | 0.00 | 77 | 1017.5 |
| 20260831204921 | 28 | 115 | 1.6 | 1.6 | 0.00 | 0.00 | 0.00 | 77 | 1017.3 |
| 20260831204421 | 28 | 172 | 4.8 | 4.8 | 0.00 | 0.00 | 0.00 | 76 | 1017.4 |
| 20260831203921 | 28 | 150 | 3.2 | 3.2 | 0.00 | 0.00 | 0.00 | 76 | 1017.4 |
| 20260831203421 | 28 | 75 | 1.6 | 1.6 | 0.00 | 0.00 | 0.00 | 77 | 1017.3 |
| 20260831202921 | 29 | 206 | 3.2 | 4.8 | 0.00 | 0.00 | 0.00 | 75 | 1017.0 |
| 20260831202421 | 29 | 143 | 1.6 | 1.6 | 0.00 | 0.00 | 0.00 | 75 | 1017.0 |
| 20260831201921 | 30 | 72 | 8.0 | 9.7 | 0.00 | 0.00 | 0.00 | 74 | 1017.0 |
| 20260831201421 | 29 | 83 | 1.6 | 1.6 | 0.00 | 0.00 | 0.00 | 76 | 1017.0 |
| 20260831200921 | 28 | 126 | 0.0 | 1.6 | 0.00 | 0.00 | 0.00 | 75 | 1017.0 |
| 20260831200421 | 29 | 151 | 4.8 | 4.8 | 0.00 | 0.00 | 0.00 | 75 | 1017.3 |
| 20260831195921 | 29 | 151 | 1.6 | 1.6 | 0.00 | 0.00 | 0.00 | 75 | 1017.1 |
| 20260831195421 | 29 | 98 | 0.0 | 0.0 | 0.00 | 0.00 | 0.00 | 74 | 1017.1 |
| 20260831194921 | 30 | 104 | 0.0 | 1.6 | 0.00 | 0.00 | 0.00 | 73 | 1017.1 |
| 20260831194421 | 30 | 111 | 3.2 | 4.8 | 0.00 | 0.00 | 0.00 | 73 | 1017.1 |
| 20260831193921 | 30 | 264 | 1.6 | 3.2 | 0.00 | 0.00 | 0.00 | 72 | 1017.2 |
| 20260831193421 | 30 | 176 | 1.6 | 1.6 | 0.00 | 0.00 | 0.00 | 70 | 1017.2 |
| 20260831192921 | 30 | 122 | 3.2 | 3.2 | 0.00 | 0.00 | 0.00 | 71 | 1017.3 |
| 20260831192421 | 30 | 152 | 0.0 | 1.6 | 0.00 | 0.00 | 0.00 | 69 | 1017.5 |
| 20260831191921 | 30 | 147 | 0.0 | 1.6 | 0.00 | 0.00 | 0.00 | 70 | 1017.4 |
| 20260831191421 | 30 | 51 | 3.2 | 4.8 | 0.00 | 0.00 | 0.00 | 71 | 1017.7 |
| 20260831190921 | 30 | 81 | 1.6 | 3.2 | 0.00 | 0.00 | 0.00 | 73 | 1017.7 |
| 20260831190421 | 29 | 178 | 1.6 | 1.6 | 0.00 | 0.00 | 0.00 | 72 | 1017.5 |
| 20260831185921 | 30 | 139 | 0.0 | 0.0 | 0.00 | 0.00 | 0.00 | 73 | 1017.7 |
| 20260831185421 | 30 | 71 | 0.0 | 0.0 | 0.00 | 0.00 | 0.00 | 74 | 1017.5 |
| 20260831184921 | 30 | 99 | 0.0 | 0.0 | 0.00 | 0.00 | 0.00 | 66 | 1017.7 |
| 20260831184421 | 30 | 178 | 0.0 | 1.6 | 0.00 | 0.00 | 0.00 | 69 | 1017.5 |
| 20260831183921 | 30 | 204 | 0.0 | 1.6 | 0.00 | 0.00 | 0.00 | 68 | 1017.5 |
| 20260831183421 | 30 | 204 | 1.6 | 1.6 | 0.00 | 0.00 | 0.00 | 69 | 1017.5 |
| 20260831182921 | 30 | 204 | 0.0 | 0.0 | 0.00 | 0.00 | 0.00 | 65 | 1017.5 |
| 20260831182421 | 30 | 204 | 0.0 | 1.6 | 0.00 | 0.00 | 0.00 | 65 | 1017.6 |
| 20260831181921 | 30 | 204 | 1.6 | 1.6 | 0.00 | 0.00 | 0.00 | 66 | 1017.6 |
| 20260831181421 | 31 | 205 | 0.0 | 1.6 | 0.00 | 0.00 | 0.00 | 69 | 1017.6 |
| 20260831180921 | 31 | 205 | 0.0 | 1.6 | 0.00 | 0.00 | 0.00 | 66 | 1017.8 |
| 20260831180421 | 31 | 117 | 0.0 | 0.0 | 0.00 | 0.00 | 0.00 | 63 | 1017.7 |
| 20260831175921 | 31 | 142 | 1.6 | 1.6 | 0.00 | 0.00 | 0.00 | 64 | 1017.8 |
| 20260831175421 | 31 | 131 | 1.6 | 3.2 | 0.00 | 0.00 | 0.00 | 64 | 1017.8 |
| 20260831174921 | 30 | 90 | 0.0 | 0.0 | 0.00 | 0.00 | 0.00 | 66 | 1017.8 |
| 20260831174421 | 30 | 90 | 1.6 | 3.2 | 0.00 | 0.00 | 0.00 | 67 | 1017.8 |
| 20260831173921 | 30 | 90 | 0.0 | 1.6 | 0.00 | 0.00 | 0.00 | 67 | 1017.8 |
| 20260831173421 | 30 | 98 | 1.6 | 1.6 | 0.00 | 0.00 | 0.00 | 69 | 1018.0 |
| 20260831172921 | 30 | 77 | 0.0 | 0.0 | 0.00 | 0.00 | 0.00 | 70 | 1018.0 |
| 20260831172421 | 30 | 70 | 3.2 | 3.2 | 0.00 | 0.00 | 0.00 | 68 | 1017.9 |
| 20260831171921 | 30 | 130 | 1.6 | 3.2 | 0.00 | 0.00 | 0.00 | 68 | 1017.8 |
| 20260831171421 | 30 | 62 | 3.2 | 4.8 | 0.00 | 0.00 | 0.00 | 67 | 1017.9 |
| 20260831170921 | 30 | 107 | 1.6 | 1.6 | 0.00 | 0.00 | 0.00 | 66 | 1018.0 |
| 20260831170421 | 30 | 157 | 1.6 | 1.6 | 0.00 | 0.00 | 0.00 | 66 | 1018.1 |
| 20260831165921 | 30 | 158 | 1.6 | 1.6 | 0.00 | 0.00 | 0.00 | 65 | 1018.2 |
| 20260831165421 | 30 | 185 | 3.2 | 3.2 | 0.00 | 0.00 | 0.00 | 66 | 1017.8 |
| 20260831164921 | 30 | 123 | 0.0 | 1.6 | 0.00 | 0.00 | 0.00 | 69 | 1018.0 |
| 20260831164421 | 30 | 213 | 0.0 | 1.6 | 0.00 | 0.00 | 0.00 | 67 | 1018.0 |
| 20260831163921 | 30 | 207 | 3.2 | 3.2 | 0.00 | 0.00 | 0.00 | 66 | 1018.1 |
| 20260831163421 | 30 | 195 | 1.6 | 1.6 | 0.00 | 0.00 | 0.00 | 68 | 1018.2 |
| 20260831162921 | 30 | 187 | 3.2 | 3.2 | 0.00 | 0.00 | 0.00 | 69 | 1018.2 |
| 20260831162421 | 29 | 173 | 1.6 | 1.6 | 0.00 | 0.00 | 0.00 | 71 | 1018.4 |
| 20260831161921 | 29 | 89 | 1.6 | 1.6 | 0.00 | 0.00 | 0.00 | 69 | 1018.3 |
| 20260831161421 | 30 | 132 | 1.6 | 1.6 | 0.00 | 0.00 | 0.00 | 69 | 1018.6 |
| 20260831160921 | 29 | 179 | 0.0 | 0.0 | 0.00 | 0.00 | 0.00 | 71 | 1018.4 |
| 20260831160421 | 28 | 127 | 1.6 | 3.2 | 0.00 | 0.00 | 0.00 | 73 | 1018.5 |
| 20260831155921 | 29 | 148 | 3.2 | 4.8 | 0.00 | 0.00 | 0.00 | 71 | 1018.5 |
| 20260831155421 | 28 | 79 | 4.8 | 4.8 | 0.00 | 0.00 | 0.00 | 72 | 1018.5 |
| 20260831154921 | 29 | 213 | 1.6 | 3.2 | 0.00 | 0.00 | 0.00 | 72 | 1018.5 |
| 20260831154421 | 28 | 95 | 3.2 | 3.2 | 0.00 | 0.00 | 0.00 | 74 | 1018.4 |
| 20260831153921 | 29 | 175 | 1.6 | 1.6 | 0.00 | 0.00 | 0.00 | 73 | 1018.6 |
| 20260831153421 | 28 | 134 | 1.6 | 3.2 | 0.00 | 0.00 | 0.00 | 75 | 1018.6 |
| 20260831152921 | 28 | 216 | 3.2 | 3.2 | 0.00 | 0.00 | 0.00 | 75 | 1018.4 |
| 20260831152421 | 28 | 210 | 0.0 | 1.6 | 0.00 | 0.00 | 0.00 | 77 | 1018.6 |
| 20260831151921 | 29 | 125 | 3.2 | 3.2 | 0.00 | 0.00 | 0.00 | 75 | 1018.3 |
| 20260831151421 | 28 | 168 | 0.0 | 1.6 | 0.00 | 0.00 | 0.00 | 78 | 1018.7 |
| 20260831150921 | 28 | 78 | 1.6 | 3.2 | 0.00 | 0.00 | 0.00 | 75 | 1018.5 |
| 20260831150421 | 28 | 170 | 0.0 | 1.6 | 0.00 | 0.00 | 0.00 | 75 | 1018.6 |
| 20260831145921 | 28 | 161 | 1.6 | 1.6 | 0.00 | 0.00 | 0.00 | 78 | 1018.7 |
| 20260831145421 | 27 | 151 | 0.0 | 0.0 | 0.00 | 0.00 | 0.00 | 80 | 1018.8 |
| 20260831144921 | 27 | 118 | 1.6 | 1.6 | 0.00 | 0.00 | 0.00 | 81 | 1018.8 |
| 20260831144421 | 27 | 78 | 1.6 | 1.6 | 0.00 | 0.00 | 0.00 | 81 | 1018.6 |
| 20260831143921 | 27 | 143 | 3.2 | 3.2 | 0.00 | 0.00 | 0.00 | 81 | 1018.4 |
| 20260831143421 | 27 | 139 | 8.0 | 11.3 | 0.00 | 0.00 | 0.00 | 79 | 1018.6 |
| 20260831142921 | 27 | 112 | 1.6 | 3.2 | 0.00 | 0.00 | 0.00 | 79 | 1018.6 |
| 20260831142421 | 27 | 156 | 0.0 | 1.6 | 0.00 | 0.00 | 0.00 | 79 | 1018.6 |
| 20260831141921 | 27 | 138 | 1.6 | 1.6 | 0.00 | 0.00 | 0.00 | 82 | 1018.4 |
| 20260831141421 | 27 | 126 | 6.4 | 9.7 | 0.00 | 0.00 | 0.00 | 81 | 1018.6 |
| 20260831140921 | 27 | 7 | 4.8 | 6.4 | 0.00 | 0.00 | 0.00 | 81 | 1018.6 |
| 20260831140421 | 27 | 158 | 1.6 | 1.6 | 0.00 | 0.00 | 0.00 | 82 | 1018.6 |
| 20260831135921 | 26 | 63 | 1.6 | 1.6 | 0.00 | 0.00 | 0.00 | 83 | 1018.8 |
| 20260831135421 | 26 | 55 | 3.2 | 3.2 | 0.00 | 0.00 | 0.00 | 83 | 1018.6 |
| 20260831134921 | 26 | 95 | 1.6 | 3.2 | 0.00 | 0.00 | 0.00 | 83 | 1018.7 |
| 20260831134421 | 27 | 208 | 0.0 | 1.6 | 0.00 | 0.00 | 0.00 | 82 | 1018.5 |
| 20260831133921 | 27 | 176 | 1.6 | 1.6 | 0.00 | 0.00 | 0.00 | 82 | 1018.7 |
| 20260831133421 | 27 | 103 | 1.6 | 3.2 | 0.00 | 0.00 | 0.00 | 82 | 1018.7 |
| 20260831132921 | 26 | 128 | 1.6 | 1.6 | 0.00 | 0.00 | 0.00 | 84 | 1018.6 |
| 20260831132421 | 25 | 158 | 0.0 | 0.0 | 0.00 | 0.00 | 0.00 | 87 | 1019.0 |
| 20260831131921 | 25 | 161 | 0.0 | 0.0 | 0.00 | 0.00 | 0.00 | 89 | 1018.9 |
| 20260831131421 | 25 | 119 | 1.6 | 1.6 | 0.00 | 0.00 | 0.00 | 90 | 1019.0 |
| 20260831130921 | 24 | 112 | 0.0 | 0.0 | 0.00 | 0.00 | 0.00 | 92 | 1018.6 |
| 20260831130421 | 23 | 153 | 0.0 | 1.6 | 0.00 | 0.00 | 0.00 | 93 | 1018.9 |
| 20260831125921 | 23 | 127 | 0.0 | 0.0 | 0.00 | 0.00 | 0.00 | 93 | 1018.8 |
| 20260831125421 | 23 | 141 | 0.0 | 0.0 | 0.00 | 0.00 | 0.00 | 93 | 1018.7 |
| 20260831124921 | 23 | 129 | 0.0 | 1.6 | 0.00 | 0.00 | 0.00 | 93 | 1018.8 |
| 20260831124421 | 23 | 165 | 0.0 | 1.6 | 0.00 | 0.00 | 0.00 | 93 | 1018.7 |
| 20260831123921 | 22 | 159 | 1.6 | 1.6 | 0.00 | 0.00 | 0.00 | 93 | 1019.0 |
| 20260831123421 | 22 | 155 | 0.0 | 1.6 | 0.00 | 0.00 | 0.00 | 93 | 1018.8 |
| 20260831122921 | 22 | 104 | 0.0 | 0.0 | 0.00 | 0.00 | 0.00 | 94 | 1018.9 |
| 20260831122421 | 22 | 105 | 1.6 | 1.6 | 0.00 | 0.00 | 0.00 | 93 | 1018.9 |
| 20260831121921 | 22 | 119 | 0.0 | 0.0 | 0.00 | 0.00 | 0.00 | 94 | 1018.8 |
| 20260831121421 | 22 | 117 | 1.6 | 1.6 | 0.00 | 0.00 | 0.00 | 93 | 1018.5 |
| 20260831120921 | 22 | 110 | 1.6 | 1.6 | 0.00 | 0.00 | 0.00 | 94 | 1018.5 |
| 20260831120421 | 22 | 198 | 0.0 | 0.0 | 0.00 | 0.00 | 0.00 | 94 | 1018.4 |
| 20260831115921 | 22 | 197 | 0.0 | 0.0 | 0.00 | 0.00 | 0.00 | 94 | 1018.2 |
| 20260831115421 | 22 | 197 | 0.0 | 0.0 | 0.00 | 0.00 | 0.00 | 94 | 1018.3 |
| 20260831114921 | 22 | 197 | 0.0 | 0.0 | 0.00 | 0.00 | 0.00 | 94 | 1018.5 |
| 20260831114421 | 22 | 197 | 0.0 | 0.0 | 0.00 | 0.00 | 0.00 | 94 | 1018.4 |
| 20260831113921 | 21 | 197 | 0.0 | 0.0 | 0.00 | 0.00 | 0.00 | 94 | 1018.3 |
| 20260831113421 | 21 | 197 | 0.0 | 0.0 | 0.00 | 0.00 | 0.00 | 94 | 1018.5 |
| 20260831112921 | 21 | 197 | 0.0 | 0.0 | 0.00 | 0.00 | 0.00 | 94 | 1018.5 |
| 20260831112421 | 21 | 197 | 0.0 | 0.0 | 0.00 | 0.00 | 0.00 | 94 | 1018.4 |
| 20260831111921 | 21 | 197 | 0.0 | 0.0 | 0.00 | 0.00 | 0.00 | 94 | 1018.4 |
| 20260831111421 | 21 | 197 | 0.0 | 0.0 | 0.00 | 0.00 | 0.00 | 94 | 1018.4 |
| 20260831110921 | 21 | 197 | 0.0 | 0.0 | 0.00 | 0.00 | 0.00 | 94 | 1018.1 |
| 20260831110421 | 21 | 197 | 0.0 | 0.0 | 0.00 | 0.00 | 0.00 | 94 | 1018.0 |
| 20260831105921 | 21 | 197 | 0.0 | 0.0 | 0.00 | 0.00 | 0.00 | 94 | 1018.1 |
| 20260831105421 | 21 | 197 | 0.0 | 0.0 | 0.00 | 0.00 | 0.00 | 94 | 1018.2 |
| 20260831104921 | 21 | 197 | 0.0 | 0.0 | 0.00 | 0.00 | 0.00 | 94 | 1018.1 |
| 20260831104421 | 21 | 197 | 0.0 | 0.0 | 0.00 | 0.00 | 0.00 | 94 | 1018.0 |
| 20260831103921 | 21 | 197 | 0.0 | 0.0 | 0.00 | 0.00 | 0.00 | 94 | 1018.0 |
| 20260831103421 | 21 | 197 | 0.0 | 0.0 | 0.00 | 0.00 | 0.00 | 94 | 1017.9 |
| 20260831102921 | 21 | 197 | 0.0 | 0.0 | 0.00 | 0.00 | 0.00 | 93 | 1017.9 |
| 20260831102421 | 21 | 197 | 0.0 | 0.0 | 0.00 | 0.00 | 0.00 | 94 | 1017.8 |
| 20260831101921 | 21 | 197 | 0.0 | 0.0 | 0.00 | 0.00 | 0.00 | 93 | 1017.9 |
| 20260831101421 | 21 | 197 | 0.0 | 0.0 | 0.00 | 0.00 | 0.00 | 93 | 1017.7 |
| 20260831100921 | 21 | 197 | 0.0 | 0.0 | 0.00 | 0.00 | 0.00 | 93 | 1017.7 |
| 20260831100421 | 21 | 197 | 0.0 | 0.0 | 0.00 | 0.00 | 0.00 | 93 | 1017.7 |
| 20260831095921 | 21 | 197 | 0.0 | 0.0 | 0.00 | 0.00 | 0.00 | 93 | 1017.7 |
| 20260831095421 | 21 | 197 | 0.0 | 0.0 | 0.00 | 0.00 | 0.00 | 93 | 1017.7 |
| 20260831094921 | 21 | 197 | 0.0 | 0.0 | 0.00 | 0.00 | 0.00 | 93 | 1017.3 |
| 20260831094421 | 21 | 197 | 0.0 | 0.0 | 0.00 | 0.00 | 0.00 | 93 | 1017.6 |
| 20260831093921 | 21 | 197 | 0.0 | 0.0 | 0.00 | 0.00 | 0.00 | 93 | 1017.8 |
| 20260831093421 | 21 | 197 | 0.0 | 0.0 | 0.00 | 0.00 | 0.00 | 93 | 1017.8 |
| 20260831092921 | 21 | 197 | 0.0 | 0.0 | 0.00 | 0.00 | 0.00 | 93 | 1017.4 |
| 20260831092421 | 21 | 197 | 0.0 | 0.0 | 0.00 | 0.00 | 0.00 | 93 | 1017.6 |
| 20260831091921 | 21 | 197 | 0.0 | 0.0 | 0.00 | 0.00 | 0.00 | 93 | 1017.6 |
| 20260831091421 | 21 | 197 | 0.0 | 0.0 | 0.00 | 0.00 | 0.00 | 93 | 1017.7 |
| 20260831090921 | 21 | 197 | 0.0 | 0.0 | 0.00 | 0.00 | 0.00 | 93 | 1017.6 |
| 20260831090421 | 21 | 197 | 0.0 | 0.0 | 0.00 | 0.00 | 0.00 | 93 | 1017.7 |
| 20260831085921 | 21 | 197 | 0.0 | 0.0 | 0.00 | 0.00 | 0.00 | 93 | 1017.5 |
| 20260831085421 | 21 | 197 | 0.0 | 0.0 | 0.00 | 0.00 | 0.00 | 93 | 1017.4 |
| 20260831084921 | 21 | 197 | 0.0 | 0.0 | 0.00 | 0.00 | 0.00 | 93 | 1017.5 |
| 20260831084421 | 21 | 197 | 0.0 | 0.0 | 0.00 | 0.00 | 0.00 | 93 | 1017.5 |
| 20260831083921 | 21 | 197 | 0.0 | 0.0 | 0.00 | 0.00 | 0.00 | 93 | 1017.4 |
| 20260831083421 | 21 | 197 | 0.0 | 0.0 | 0.00 | 0.00 | 0.00 | 93 | 1017.5 |
| 20260831082921 | 21 | 197 | 0.0 | 0.0 | 0.00 | 0.00 | 0.00 | 93 | 1017.3 |
| 20260831082421 | 21 | 197 | 0.0 | 0.0 | 0.00 | 0.00 | 0.00 | 93 | 1017.5 |
| 20260831081921 | 21 | 197 | 0.0 | 0.0 | 0.00 | 0.00 | 0.00 | 93 | 1017.5 |
| 20260831081421 | 21 | 197 | 0.0 | 0.0 | 0.00 | 0.00 | 0.00 | 93 | 1017.6 |
| 20260831080921 | 22 | 197 | 0.0 | 0.0 | 0.00 | 0.00 | 0.00 | 93 | 1017.6 |
| 20260831080421 | 22 | 197 | 0.0 | 0.0 | 0.00 | 0.00 | 0.00 | 93 | 1017.7 |
| 20260831075921 | 21 | 197 | 0.0 | 0.0 | 0.00 | 0.00 | 0.00 | 93 | 1017.6 |
| 20260831075421 | 22 | 197 | 0.0 | 0.0 | 0.00 | 0.00 | 0.00 | 93 | 1017.6 |
| 20260831074921 | 22 | 197 | 0.0 | 0.0 | 0.00 | 0.00 | 0.00 | 93 | 1017.6 |
| 20260831074421 | 22 | 197 | 0.0 | 1.6 | 0.00 | 0.00 | 0.00 | 93 | 1017.8 |
| 20260831073921 | 22 | 197 | 1.6 | 1.6 | 0.00 | 0.00 | 0.00 | 93 | 1017.6 |
| 20260831073421 | 22 | 197 | 0.0 | 0.0 | 0.00 | 0.00 | 0.00 | 93 | 1017.7 |
| 20260831072921 | 22 | 197 | 0.0 | 0.0 | 0.00 | 0.00 | 0.00 | 93 | 1017.6 |
| 20260831072421 | 22 | 197 | 0.0 | 0.0 | 0.00 | 0.00 | 0.00 | 93 | 1017.7 |
| 20260831071921 | 22 | 197 | 0.0 | 0.0 | 0.00 | 0.00 | 0.00 | 93 | 1017.6 |
| 20260831071421 | 22 | 197 | 0.0 | 0.0 | 0.00 | 0.00 | 0.00 | 92 | 1017.6 |
| 20260831070921 | 22 | 197 | 0.0 | 0.0 | 0.00 | 0.00 | 0.00 | 92 | 1017.8 |
| 20260831070421 | 22 | 197 | 0.0 | 0.0 | 0.00 | 0.00 | 0.00 | 92 | 1017.8 |